Regional Weather Roundup
Issued by NWS

Home | Current Version | Previous Version | Graphics & Text | Print | Product List | Glossary On
Versions: 1 2 3 4 5 6 7 8 9 10 11 12 13 14 15 16 17 18 19 20 21 22 23 24 25 26 27 28 29 30 31 32 33 34 35 36 37 38 39 40 41 42 43 44 45 46 47 48 49 50
000
ASUS43 KTOP 270859
RWRKS

WEATHER ROUNDUP FOR KANSAS
NATIONAL WEATHER SERVICE GOODLAND KS
400 AM CDT SUN MAY 27 2018

NOTE:  "FAIR" INDICATES FEW OR NO CLOUDS BELOW 12,000 FEET WITH NO
SIGNIFICANT WEATHER AND/OR OBSTRUCTIONS TO VISIBILITY.

KSZ001>006-013>018-027>032-041>047-271000-
NORTHWEST KANSAS

CITY           SKY/WX    TMP DP  RH WIND       PRES   REMARKS
GOODLAND       CLOUDY    64  54  69 S10       29.86R
HAYS           CLOUDY    68  63  84 S3        29.85R
HILL CITY      PTCLDY    70  61  73 S10G21    29.84S
RUSSELL        MOCLDY    67  65  93 S5        29.83R
$$

KSZ061>065-074>080-084>089-271000-
SOUTHWEST KANSAS

CITY           SKY/WX    TMP DP  RH WIND       PRES   REMARKS
DODGE CITY     PTCLDY    70  65  84 S14       29.87S
GARDEN CITY    PTCLDY    70  62  76 SE16      29.85F
GREAT BEND     CLOUDY    70  65  84 S10       29.85R
LIBERAL        PTCLDY    70  64  81 S15       29.87S
$$

KSZ066>073-081>083-090>101-271000-
SOUTHEAST KANSAS

CITY           SKY/WX    TMP DP  RH WIND       PRES   REMARKS
CHANUTE        CLEAR     69  66  90 CALM      29.84S
COFFEYVILLE    CLEAR     68  66  93 CALM      29.83S
HUTCHINSON     PTCLDY    68  65  90 S5        29.84S
MEDICINE LODGE   N/A     69  66  90 E5        29.84S
NEWTON         CLOUDY    69  64  84 S8        29.86R
PARSONS        CLEAR     67  66  97 CALM      29.85S
WICHITA INTL   PTCLDY    68  65  90 S7        29.83F
WICHITA JABRA  CLEAR     69  66  90 S6        29.84S
WICHITA MCCONL CLEAR     69  64  82 S5        29.84S
WINFIELD       PTCLDY    67  65  93 CALM      29.86R
$$

KSZ007>012-019>026-033>040-048>060-102>105-271000-
NORTHEAST KANSAS

CITY           SKY/WX    TMP DP  RH WIND       PRES   REMARKS
CONCORDIA      PTCLDY    74  63  68 S12       29.82R
EMPORIA        CLEAR     68  64  87 SW3       29.83S
LAWRENCE       PTCLDY    69  67  93 NE3       29.83R
MANHATTAN      CLEAR     69  65  86 CALM      29.82S
OLATHE IND     MOCLDY    71  68  90 S5        29.85R
OLATHE EXE     MOCLDY    70  68  93 S3        29.85R
SALINA         PTCLDY    70  66  87 S5        29.82S
TOPEKA BILLARD PTCLDY    70  67  90 SE6       29.82R
TOPEKA FORBES  PTCLDY    72  67  84 S3        29.83R
$$



USA.gov is the U.S. government's official web portal to all federal, state and local government web resources and services.